Location: Unspecified
(44.7900°N, 0.0000°E)
Time: 13:15:50
(UTC+00:00)

Tiangong 2 - Visible Passes

Search period start: 20 June 2019 00:00
Search period end: 30 June 2019 00:00
Orbit: 376 x 389 km, 42.8° (Epoch: 20 June)

Date Brightness Start Highest point End Pass type
(mag) Time Alt. Az. Time Alt. Az. Time Alt. Az.
26 Jun 3.1 03:13:50 10° SSW 03:15:55 17° SSE 03:18:06 10° ESE visible
27 Jun 3.6 02:16:12 11° SE 02:16:12 11° SE 02:16:44 10° SE visible
28 Jun 2.4 02:50:41 19° SSW 02:51:58 25° SSE 02:54:38 10° E visible
29 Jun 3.4 01:52:58 15° SE 01:52:58 15° SE 01:54:02 10° ESE visible
29 Jun 1.5 03:25:08 10° WSW 03:28:10 47° SSE 03:31:14 10° E visible
